EW9290 Weather Reports


Display with metric or nautical units.
time (UTC)temp
F
wind
direction
speed
MPH
gust
MPH
rain 1hr
in
rain 24hr
in
rain mn
in
humidity
%
barometer
mb
20260903011919 81 222 0.0 0.0 0.00 0.00 0.00 80 1012.7
20260903011414 81 222 0.0 0.0 0.00 0.00 0.00 80 1012.5
20260903010909 81 205 0.0 0.0 0.00 0.00 0.00 80 1012.5
20260903010405 81 192 0.0 0.0 0.00 0.00 0.00 80 1012.6
20260903005902 82 211 0.0 0.0 0.00 0.00 0.00 80 1012.5
20260903005358 82 210 0.0 0.0 0.00 0.00 0.00 79 1012.5
20260903004854 82 215 0.0 0.0 0.00 0.00 0.00 79 1012.3
20260903004349 82 229 0.0 0.0 0.00 0.00 0.00 79 1012.3
20260903003845 82 229 0.0 0.0 0.00 0.00 0.00 78 1012.3
20260903003345 83 229 0.0 0.0 0.00 0.00 0.00 77 1012.3
20260903002844 83 230 0.0 0.0 0.00 0.00 0.00 76 1012.2
20260903002339 84 230 0.0 0.0 0.00 0.00 0.00 75 1012.4
20260903001834 84 222 0.0 0.0 0.00 0.00 0.00 75 1012.0
20260903001330 84 234 2.0 2.0 0.00 0.00 0.00 74 1012.1
20260903000829 84 226 0.0 0.0 0.00 0.00 0.00 74 1012.2
20260903000325 85 217 0.0 0.0 0.00 0.00 0.00 73 1012.1
20260902235822 85 232 0.0 0.0 0.00 0.00 0.00 72 1012.3
20260902235317 86 221 1.0 1.0 0.00 0.00 0.00 71 1012.3
20260902234812 86 221 1.0 2.0 0.00 0.00 0.00 71 1012.1
20260902234311 86 231 0.0 0.0 0.00 0.00 0.00 70 1011.9
20260902233810 86 220 1.0 1.0 0.00 0.00 0.00 70 1012.1
20260902233305 86 229 1.0 1.0 0.00 0.00 0.00 69 1012.2
20260902232804 87 215 2.0 2.0 0.00 0.00 0.00 69 1012.1
20260902232306 87 234 4.0 6.0 0.00 0.00 0.00 68 1012.3
20260902231803 87 217 4.0 7.0 0.00 0.00 0.00 67 1012.1
20260902231258 87 233 1.0 2.0 0.00 0.00 0.00 66 1012.1
20260902230753 87 245 3.0 3.0 0.00 0.00 0.00 66 1012.3
20260902230252 87 242 1.0 1.0 0.00 0.00 0.00 66 1012.1
20260902225747 87 236 1.0 1.0 0.00 0.00 0.00 65 1012.1
20260902225242 88 223 0.0 0.0 0.00 0.00 0.00 65 1012.2
20260902224740 88 224 1.0 1.0 0.00 0.00 0.00 64 1012.5
20260902224236 89 240 3.0 3.0 0.00 0.00 0.00 62 1012.3
20260902223732 89 219 2.0 2.0 0.00 0.00 0.00 62 1012.3
20260902223231 89 242 3.0 5.0 0.00 0.00 0.00 62 1012.2
20260902222730 90 237 2.0 2.0 0.00 0.00 0.00 63 1012.1
20260902222225 90 217 1.0 1.0 0.00 0.00 0.00 64 1012.1
20260902221720 90 237 1.0 1.0 0.00 0.00 0.00 63 1012.0
20260902221218 90 227 3.0 5.0 0.00 0.00 0.00 62 1012.2
20260902220709 89 224 1.0 1.0 0.00 0.00 0.00 63 1012.0
20260902220209 89 236 2.0 2.0 0.00 0.00 0.00 64 1012.0
20260902215704 89 235 1.0 2.0 0.00 0.00 0.00 63 1012.1
20260902215200 91 212 5.0 8.0 0.00 0.00 0.00 61 1011.9
20260902214700 92 218 3.0 3.0 0.00 0.00 0.00 61 1012.0
20260902214159 91 235 0.0 0.0 0.00 0.00 0.00 62 1012.2
20260902213654 90 227 3.0 3.0 0.00 0.00 0.00 63 1012.3
20260902213149 91 243 2.0 3.0 0.00 0.00 0.00 61 1012.0
20260902212644 91 236 2.0 2.0 0.00 0.00 0.00 60 1012.2
20260902212140 91 239 2.0 2.0 0.00 0.00 0.00 61 1012.2
20260902211637 92 218 0.0 1.0 0.00 0.00 0.00 59 1012.4
20260902211137 90 264 3.0 5.0 0.00 0.00 0.00 61 1012.3
20260902210636 92 249 0.0 0.0 0.00 0.00 0.00 61 1012.4
20260902210131 92 230 2.0 2.0 0.00 0.00 0.00 60 1012.3
20260902205630 91 245 1.0 1.0 0.00 0.00 0.00 60 1012.6
20260902205125 91 245 2.0 2.0 0.00 0.00 0.00 62 1012.5
20260902204620 91 220 1.0 2.0 0.00 0.00 0.00 62 1012.5
20260902204115 90 224 1.0 2.0 0.00 0.00 0.00 62 1012.7
20260902203611 91 211 3.0 3.0 0.00 0.00 0.00 62 1012.7
20260902203110 91 217 0.0 0.0 0.00 0.00 0.00 62 1012.8
20260902202606 91 233 1.0 1.0 0.00 0.00 0.00 63 1012.8
20260902202102 92 226 0.0 1.0 0.00 0.00 0.00 61 1012.9
20260902201558 92 231 2.0 3.0 0.00 0.00 0.00 60 1012.8
20260902201056 91 228 0.0 0.0 0.00 0.00 0.00 60 1013.0
20260902200552 90 237 1.0 2.0 0.00 0.00 0.00 62 1013.0
20260902200048 91 249 0.0 0.0 0.00 0.00 0.00 62 1012.8
20260902195544 92 266 1.0 2.0 0.00 0.00 0.00 60 1013.0
20260902195042 93 229 1.0 2.0 0.00 0.00 0.00 60 1013.1
20260902194536 92 228 5.0 7.0 0.00 0.00 0.00 59 1012.9
20260902194032 92 234 4.0 5.0 0.00 0.00 0.00 60 1012.8
20260902193528 93 242 3.0 5.0 0.00 0.00 0.00 60 1012.9
20260902193027 92 218 1.0 2.0 0.00 0.00 0.00 63 1013.2
20260902192525 92 283 3.0 6.0 0.00 0.00 0.00 60 1013.2
20260902192024 92 217 5.0 7.0 0.00 0.00 0.00 60 1013.0
20260902191520 91 214 0.0 0.0 0.00 0.00 0.00 62 1013.5
20260902191015 91 250 3.0 3.0 0.00 0.00 0.00 63 1013.2
20260902190510 90 232 1.0 2.0 0.00 0.00 0.00 61 1013.5
20260902190006 91 245 3.0 3.0 0.00 0.00 0.00 63 1013.4
20260902185502 93 277 2.0 2.0 0.00 0.00 0.00 60 1013.4
20260902184956 91 241 0.0 1.0 0.00 0.00 0.00 61 1013.5
20260902184452 93 212 5.0 6.0 0.00 0.00 0.00 60 1013.6
20260902183947 92 226 1.0 2.0 0.00 0.00 0.00 60 1013.7
20260902183443 92 266 3.0 5.0 0.00 0.00 0.00 61 1013.5
20260902182939 92 241 4.0 5.0 0.00 0.00 0.00 61 1013.8
20260902182435 91 214 3.0 3.0 0.00 0.00 0.00 61 1013.9
20260902181932 91 256 3.0 5.0 0.00 0.00 0.00 61 1013.9
20260902181427 91 220 1.0 2.0 0.00 0.00 0.00 61 1014.0
20260902180926 92 209 2.0 2.0 0.00 0.00 0.00 62 1014.1
20260902180422 91 219 1.0 1.0 0.00 0.00 0.00 62 1014.0
20260902175918 90 251 4.0 5.0 0.00 0.00 0.00 63 1014.0
20260902175412 91 218 1.0 2.0 0.00 0.00 0.00 64 1014.0
20260902174908 90 197 0.0 1.0 0.00 0.00 0.00 65 1014.2
20260902174405 90 231 3.0 5.0 0.00 0.00 0.00 64 1014.0
20260902173855 91 236 2.0 2.0 0.00 0.00 0.00 64 1014.3
20260902173354 90 228 2.0 2.0 0.00 0.00 0.00 63 1014.6
20260902172849 90 236 3.0 3.0 0.00 0.00 0.00 63 1014.6
20260902172348 91 209 2.0 2.0 0.00 0.00 0.00 63 1014.7
20260902171843 90 204 3.0 3.0 0.00 0.00 0.00 64 1014.7
20260902171339 89 242 0.0 0.0 0.00 0.00 0.00 65 1014.9
20260902170835 89 220 1.0 1.0 0.00 0.00 0.00 67 1015.1
20260902170330 89 183 0.0 0.0 0.00 0.00 0.00 67 1014.8
20260902165826 89 216 0.0 1.0 0.00 0.00 0.00 66 1014.7
20260902165325 90 239 1.0 1.0 0.00 0.00 0.00 64 1014.9
20260902164820 89 217 1.0 2.0 0.00 0.00 0.00 65 1014.6
20260902164315 89 228 1.0 1.0 0.00 0.00 0.00 66 1014.8
20260902163814 89 214 2.0 2.0 0.00 0.00 0.00 64 1014.9
20260902163309 90 212 3.0 5.0 0.00 0.00 0.00 62 1015.1
20260902162807 90 230 3.0 3.0 0.00 0.00 0.00 65 1014.9
20260902162306 90 45 3.0 3.0 0.00 0.00 0.00 64 1015.1
20260902161802 91 216 0.0 0.0 0.00 0.00 0.00 66 1015.0
20260902161258 90 147 0.0 0.0 0.00 0.00 0.00 64 1015.0
20260902160754 89 210 2.0 2.0 0.00 0.00 0.00 66 1015.2
20260902160249 89 260 2.0 3.0 0.00 0.00 0.00 66 1015.2
20260902155747 89 110 0.0 0.0 0.00 0.00 0.00 66 1015.1
20260902155246 88 214 2.0 2.0 0.00 0.00 0.00 68 1015.4
20260902154741 88 264 2.0 2.0 0.00 0.00 0.00 70 1015.2
20260902154236 89 203 3.0 3.0 0.00 0.00 0.00 67 1015.3
20260902153730 88 189 0.0 0.0 0.00 0.00 0.00 70 1015.3
20260902153230 87 216 0.0 0.0 0.00 0.00 0.00 71 1015.2
20260902152726 87 234 0.0 0.0 0.00 0.00 0.00 71 1015.3
20260902152221 86 248 0.0 1.0 0.00 0.00 0.00 73 1015.4
20260902151717 86 239 3.0 3.0 0.00 0.00 0.00 74 1015.3
20260902151212 85 223 0.0 0.0 0.00 0.00 0.00 75 1015.0
20260902150707 86 220 1.0 2.0 0.00 0.00 0.00 75 1015.1
20260902150203 85 244 1.0 2.0 0.00 0.00 0.00 76 1015.5
20260902145702 85 228 2.0 2.0 0.00 0.00 0.00 76 1015.2
20260902145201 85 230 4.0 5.0 0.00 0.00 0.00 75 1015.2
20260902144658 85 223 0.0 0.0 0.00 0.00 0.00 75 1015.3
20260902144153 85 220 0.0 1.0 0.00 0.00 0.00 75 1015.3
20260902143653 84 219 0.0 0.0 0.00 0.00 0.00 78 1015.2
20260902143149 84 203 1.0 1.0 0.00 0.00 0.00 76 1015.1
20260902142645 85 199 3.0 3.0 0.00 0.00 0.00 76 1015.3
20260902142140 84 238 0.0 0.0 0.00 0.00 0.00 79 1015.2
20260902141639 84 228 1.0 1.0 0.00 0.00 0.00 79 1014.8
20260902141135 83 217 1.0 1.0 0.00 0.00 0.00 79 1015.1
20260902140630 83 200 1.0 1.0 0.00 0.00 0.00 80 1015.0
20260902140125 83 216 0.0 0.0 0.00 0.00 0.00 80 1015.1
20260902135625 83 217 0.0 0.0 0.00 0.00 0.00 80 1014.9
20260902135121 82 222 0.0 0.0 0.00 0.00 0.00 82 1015.0
20260902134616 81 230 0.0 0.0 0.00 0.00 0.00 83 1015.0
20260902134115 81 226 0.0 0.0 0.00 0.00 0.00 83 1014.9
20260902133610 81 216 2.0 3.0 0.00 0.00 0.00 83 1014.9
20260902133105 80 216 2.0 2.0 0.00 0.00 0.00 83 1014.8
20260902132600 81 213 0.0 1.0 0.00 0.00 0.00 84 1014.7
20260902132055 80 223 0.0 0.0 0.00 0.00 0.00 85 1015.0
20260902131552 80 232 1.0 2.0 0.00 0.00 0.00 85 1014.9
20260902131052 80 238 1.0 1.0 0.00 0.00 0.00 85 1015.0
20260902130548 80 239 0.0 0.0 0.00 0.00 0.00 85 1014.8
20260902130043 79 209 0.0 0.0 0.00 0.00 0.00 87 1015.2
20260902125539 78 200 1.0 1.0 0.00 0.00 0.00 88 1014.9
20260902125034 78 215 0.0 0.0 0.00 0.00 0.00 89 1014.6
20260902124531 78 147 0.0 0.0 0.00 0.00 0.00 88 1014.8
20260902124031 78 201 0.0 0.0 0.00 0.00 0.00 89 1014.7
20260902123527 78 190 0.0 0.0 0.00 0.00 0.00 89 1014.6
20260902123026 78 193 0.0 0.0 0.00 0.00 0.00 90 1014.9
20260902122526 77 193 0.0 0.0 0.00 0.00 0.00 91 1014.8
20260902122021 76 192 0.0 0.0 0.00 0.00 0.00 92 1015.0
20260902121516 75 192 0.0 0.0 0.00 0.00 0.00 94 1014.9
20260902121011 74 192 0.0 0.0 0.00 0.00 0.00 96 1014.8
20260902120507 73 180 0.0 0.0 0.00 0.00 0.00 97 1014.8
20260902120003 73 172 0.0 0.0 0.00 0.00 0.00 98 1014.6
20260902115458 73 172 0.0 0.0 0.00 0.00 0.00 99 1014.6
20260902114954 72 157 0.0 0.0 0.00 0.00 0.00 99 1014.6
20260902114450 72 157 0.0 0.0 0.00 0.00 0.00 99 1014.4
20260902113944 72 157 0.0 0.0 0.00 0.00 0.00 99 1014.1
20260902113440 72 157 0.0 0.0 0.00 0.00 0.00 99 1014.3
20260902112939 72 157 0.0 0.0 0.00 0.00 0.00 99 1014.3
20260902112436 72 159 0.0 0.0 0.00 0.00 0.00 99 1014.2
20260902111932 72 150 0.0 0.0 0.00 0.00 0.00 99 1014.2
20260902111428 71 140 0.0 0.0 0.00 0.00 0.00 99 1014.2
20260902110924 71 140 0.0 0.0 0.00 0.00 0.00 99 1014.2
20260902110420 71 140 0.0 0.0 0.00 0.00 0.00 99 1014.0
20260902105914 71 140 0.0 0.0 0.00 0.00 0.00 99 1014.1
20260902105409 71 135 0.0 0.0 0.00 0.00 0.00 99 1014.1
20260902104904 72 138 0.0 0.0 0.00 0.00 0.00 99 1014.3
20260902104400 72 138 0.0 0.0 0.00 0.00 0.00 99 1014.2
20260902103859 72 137 0.0 0.0 0.00 0.00 0.00 99 1014.2
20260902103355 72 140 0.0 0.0 0.00 0.00 0.00 99 1014.0
20260902102855 72 140 0.0 0.0 0.00 0.00 0.00 99 1014.2
20260902102353 72 138 0.0 0.0 0.00 0.00 0.00 99 1014.0
20260902101848 72 139 0.0 0.0 0.00 0.00 0.00 99 1014.0
20260902101343 72 138 0.0 0.0 0.00 0.00 0.00 99 1014.1
20260902100842 72 139 0.0 0.0 0.00 0.00 0.00 99 1013.7
20260902100336 72 139 0.0 0.0 0.00 0.00 0.00 99 1013.6
20260902095832 72 138 0.0 0.0 0.00 0.00 0.00 99 1013.7
20260902095331 72 152 0.0 0.0 0.00 0.00 0.00 99 1013.8
20260902094831 72 147 0.0 0.0 0.00 0.00 0.00 99 1014.1
20260902094328 72 162 0.0 0.0 0.00 0.00 0.00 99 1014.1
20260902093827 72 149 1.0 1.0 0.00 0.00 0.00 99 1014.1
20260902093322 72 170 0.0 0.0 0.00 0.00 0.00 99 1014.1
20260902092821 72 168 0.0 0.0 0.00 0.00 0.00 99 1014.2
20260902092317 72 153 0.0 0.0 0.00 0.00 0.00 99 1014.4
20260902091811 72 153 0.0 0.0 0.00 0.00 0.00 99 1014.3
20260902091307 72 151 0.0 0.0 0.00 0.00 0.00 99 1014.1
20260902090803 72 148 0.0 0.0 0.00 0.00 0.00 99 1014.3
20260902090302 72 148 0.0 0.0 0.00 0.00 0.00 99 1014.4
20260902085801 72 148 0.0 0.0 0.00 0.00 0.00 99 1014.6
20260902085257 72 148 0.0 0.0 0.00 0.00 0.00 99 1014.3
20260902084753 72 148 0.0 0.0 0.00 0.00 0.00 99 1014.2
20260902084248 72 148 0.0 0.0 0.00 0.00 0.00 99 1014.4
20260902083744 72 148 0.0 0.0 0.00 0.00 0.00 99 1014.0
20260902083238 72 148 0.0 0.0 0.00 0.00 0.00 99 1014.2
20260902082733 72 148 0.0 0.0 0.00 0.00 0.00 99 1014.2
20260902082230 72 147 0.0 0.0 0.00 0.00 0.00 99 1014.0
20260902081726 72 145 0.0 0.0 0.00 0.00 0.00 99 1014.1
20260902081221 72 145 0.0 0.0 0.00 0.00 0.00 99 1014.0
20260902080716 72 145 0.0 0.0 0.00 0.00 0.00 99 1014.0
20260902080213 72 145 0.0 0.0 0.00 0.00 0.00 99 1014.0
20260902075712 72 150 0.0 0.0 0.00 0.00 0.00 99 1014.1
20260902075209 72 151 0.0 0.0 0.00 0.00 0.00 99 1014.0
20260902074708 72 150 0.0 0.0 0.00 0.00 0.00 99 1014.0
20260902074203 72 150 0.0 0.0 0.00 0.00 0.00 99 1013.9
20260902073659 72 153 0.0 0.0 0.00 0.00 0.00 99 1014.1
20260902073155 72 143 0.0 0.0 0.00 0.00 0.00 99 1014.0
20260902072651 72 147 0.0 0.0 0.00 0.00 0.00 99 1014.0
20260902072147 72 147 0.0 0.0 0.00 0.00 0.00 99 1014.1
20260902071642 72 133 0.0 0.0 0.00 0.00 0.00 99 1014.2
20260902071138 72 135 0.0 0.0 0.00 0.00 0.00 99 1014.1
20260902070634 72 158 0.0 0.0 0.00 0.00 0.00 99 1014.1
20260902070133 72 158 0.0 1.0 0.00 0.00 0.00 99 1014.0
20260902065632 72 151 0.0 0.0 0.00 0.00 0.00 99 1014.0
20260902065128 72 145 0.0 0.0 0.00 0.00 0.00 99 1014.3
20260902064623 72 158 0.0 0.0 0.00 0.00 0.00 99 1014.2
20260902064119 72 168 0.0 0.0 0.00 0.00 0.00 99 1014.4
20260902063614 72 141 0.0 0.0 0.00 0.00 0.00 99 1014.2
20260902063109 72 147 0.0 0.0 0.00 0.00 0.00 99 1014.3
20260902062607 72 163 0.0 0.0 0.00 0.00 0.00 99 1014.4
20260902062103 72 138 0.0 0.0 0.00 0.00 0.00 99 1014.7
20260902061603 72 156 0.0 0.0 0.00 0.00 0.00 99 1014.3
20260902061059 72 156 0.0 0.0 0.00 0.00 0.00 99 1014.6
20260902060555 72 156 0.0 0.0 0.00 0.00 0.00 99 1014.4
20260902060051 72 156 0.0 0.0 0.00 0.00 0.00 99 1014.4
20260902055547 72 167 0.0 0.0 0.00 0.00 0.00 99 1014.4
20260902055042 72 136 0.0 0.0 0.00 0.00 0.00 99 1014.3
20260902054537 72 177 0.0 0.0 0.00 0.00 0.00 99 1014.1
20260902054033 72 154 0.0 0.0 0.00 0.00 0.00 98 1014.3
20260902053533 72 162 0.0 0.0 0.00 0.00 0.00 98 1014.4
20260902053027 72 152 0.0 0.0 0.00 0.00 0.00 98 1014.2
20260902052521 72 161 0.0 0.0 0.00 0.00 0.00 98 1014.2
20260902052018 72 172 0.0 0.0 0.00 0.00 0.00 98 1014.3
20260902051517 72 172 0.0 0.0 0.00 0.00 0.00 98 1014.6
20260902051016 72 172 0.0 0.0 0.00 0.00 0.00 98 1014.3
20260902050511 72 172 0.0 0.0 0.00 0.00 0.00 98 1014.4
20260902050008 72 172 0.0 0.0 0.00 0.00 0.00 98 1014.2
20260902045501 72 172 0.0 0.0 0.00 0.00 0.00 97 1014.2
20260902044958 72 172 0.0 0.0 0.00 0.00 0.00 97 1014.4
20260902044452 72 172 0.0 0.0 0.00 0.00 0.00 97 1014.2
20260902043948 72 172 0.0 0.0 0.00 0.00 0.00 96 1014.2
20260902043443 73 172 0.0 0.0 0.00 0.00 0.00 96 1014.2
20260902042938 73 172 0.0 0.0 0.00 0.00 0.00 96 1014.0
20260902042437 73 172 0.0 0.0 0.00 0.00 0.00 95 1013.9
20260902041933 73 172 0.0 0.0 0.00 0.00 0.00 95 1013.7
20260902041427 73 172 0.0 0.0 0.00 0.00 0.00 94 1014.0
20260902040926 74 172 0.0 0.0 0.00 0.00 0.00 94 1014.1
20260902040421 74 173 0.0 0.0 0.00 0.00 0.00 93 1013.7
20260902035921 74 174 0.0 0.0 0.00 0.00 0.00 93 1013.4
20260902035416 75 210 0.0 0.0 0.00 0.00 0.00 93 1013.7
20260902034915 75 211 0.0 0.0 0.00 0.00 0.00 92 1013.7
20260902034410 75 211 0.0 0.0 0.00 0.00 0.00 92 1014.0
20260902033909 75 211 0.0 0.0 0.00 0.00 0.00 92 1014.1
20260902033403 75 211 0.0 0.0 0.00 0.00 0.00 91 1014.1
20260902032902 76 211 0.0 0.0 0.00 0.00 0.00 91 1013.9
20260902032356 76 211 0.0 0.0 0.00 0.00 0.00 91 1013.8
20260902031851 76 211 0.0 0.0 0.00 0.00 0.00 91 1014.0
20260902031347 75 223 0.0 0.0 0.00 0.00 0.00 93 1014.2
20260902030843 75 224 0.0 0.0 0.00 0.00 0.00 93 1013.9
20260902030337 75 223 0.0 0.0 0.00 0.00 0.00 95 1014.0
20260902025836 74 223 0.0 0.0 0.00 0.00 0.00 96 1014.1
20260902025332 74 224 0.0 0.0 0.00 0.00 0.00 96 1013.8
20260902024826 74 224 0.0 0.0 0.00 0.00 0.00 96 1014.1
20260902024322 74 225 0.0 0.0 0.00 0.00 0.00 96 1013.8
20260902023817 74 225 0.0 0.0 0.00 0.00 0.00 96 1014.1
20260902023313 73 203 1.0 1.0 0.00 0.00 0.00 97 1013.9
20260902022811 72 217 0.0 0.0 0.00 0.00 0.00 97 1014.1
20260902022307 72 217 0.0 0.0 0.00 0.00 0.00 97 1013.9
20260902021803 73 216 0.0 0.0 0.00 0.00 0.00 96 1014.0
20260902021257 73 216 0.0 0.0 0.00 0.00 0.00 95 1013.7
20260902020753 73 216 0.0 0.0 0.00 0.00 0.00 95 1013.8
20260902020249 73 217 0.0 0.0 0.00 0.00 0.00 95 1013.8
20260902015744 73 217 0.0 0.0 0.00 0.00 0.00 94 1014.0
20260902015240 73 217 0.0 0.0 0.00 0.00 0.00 94 1013.7
20260902014736 74 217 0.0 0.0 0.00 0.00 0.00 93 1013.9
20260902014233 74 217 0.0 0.0 0.00 0.00 0.00 93 1013.7
20260902013730 74 217 0.0 0.0 0.00 0.00 0.00 93 1013.6
20260902013226 74 217 0.0 0.0 0.00 0.00 0.00 92 1013.7
20260902012721 74 217 0.0 0.0 0.00 0.00 0.00 91 1013.4
20260902012218 75 217 0.0 0.0 0.00 0.00 0.00 91 1013.5